Home > Weather > Funafuti > Past weeks

Flag for Tuvalu Weather for the Past 2 Weeks in Funafuti, Tuvalu

Now
90 °F

Scattered clouds.


Feels Like: 105 °F
Forecast: 81 / 87 °F
Wind: 2 mph from North

Location: Funafuti

Current Time: May 1, 2016 at 1:04:12 PM

Latest Report: May 1, 2016 at 12:00 PM


Visibility: N/A

Pressure: 29.80 "Hg

Humidity: 71%

Dew Point: 79 °F

Location of FunafutiLocation

Historic Weather in Funafuti — Graph

°F

Funafuti Temperature Yesterday

Maximum temperature yesterday: 86 °F (at 2:00 PM)
Minimum temperature yesterday: 77 °F (at 8:00 AM)
Average temperature yesterday: 81 °F

High & Low Weather Summary for the Past Weeks

 TemperatureHumidityPressure
High91 °F (Apr 29, 11:00 AM)94% (Apr 17, 3:00 AM)29.89 "Hg (Apr 17, 3:00 AM)
Low77 °F (Apr 17, 4:00 AM)59% (Apr 29, 11:00 AM)29.65 "Hg (Apr 22, 5:00 AM)
Average85 °F79%29.78 "Hg
* Reported Apr 16 12:00 Noon — May 1 12:00 Noon, Funafuti, Weather by CustomWeather, © 2016

Note: Actual official high and low records may vary slightly from our data, if they occured in-between our weather recording intervals... More about our weather records

Advertising

Funafuti Weather History for the Previous 24 Hours

Scroll right to see more
 ConditionsComfort  
Time TempWeatherWind HumidityBarometerVisibility
12:00 PM
Sun, May 1
90 °FScattered clouds.2 mph71%29.80 "HgN/A
11:00 AM90 °FScattered clouds.2 mph71%29.83 "HgN/A
10:00 AM88 °FPassing clouds.2 mph75%29.86 "HgN/A
9:00 AM88 °FScattered clouds.6 mph75%29.86 "HgN/A
8:00 AM86 °FPassing clouds.12 mph75%29.80 "HgN/A
7:00 AM84 °FPassing clouds.13 mph74%29.80 "HgN/A
6:00 AM82 °FPassing clouds.13 mph79%29.77 "HgN/A
5:00 AM82 °FPassing clouds.13 mph84%29.77 "HgN/A
2:00 AM82 °FSprinkles. Partly cloudy.13 mph89%29.77 "HgN/A
1:00 AM82 °FScattered showers. Passing clouds.12 mph89%29.77 "HgN/A
12:00 AM82 °FPassing clouds.9 mph94%29.80 "HgN/A
11:00 PM
Sat, Apr 30
82 °FSprinkles. Partly cloudy.10 mph89%29.80 "HgN/A
10:00 PM81 °FPassing clouds.No wind89%29.83 "HgN/A
9:00 PM81 °FPartly cloudy.No wind89%29.83 "HgN/A
8:00 PM82 °FMostly cloudy.No wind84%29.83 "HgN/A
7:00 PM82 °FSprinkles. Mostly cloudy.No wind84%29.80 "HgN/A
6:00 PM86 °FPassing clouds.No wind75%29.77 "HgN/A
5:00 PM86 °FBroken clouds.No wind75%29.77 "HgN/A
2:00 PM86 °FScattered clouds.1 mph79%29.77 "HgN/A
1:00 PM84 °FScattered clouds.No wind84%29.77 "HgN/A
Weather by CustomWeather, © 2016

See weather overviewHow to use our weather pages